Lapse_Rate
5.7 6.5 6.5 6.5 6.5 6.5 6.5 6.5 6.5 6.5 6.5 6.5 6.5 6.5 6.5 5.4 4.8 4.0 1.8 2.1 0.5 0.6 0.7 1.6 1.9 1.6 1.7 1.5 0.5 0.2 -0.6 -1.0 -0.9 -0.5 -0.3 0.2 -0.4 0.2 0.6 0.7 0.9 1.1 1.7 2.1
6.5 6.5 6.5 6.5 6.5 6.5 6.5 6.5 6.5 6.5 6.5 6.5 6.5 6.5 6.5 6.5 5.6 4.5 4.1 2.4 1.3 1.8 0.0 -0.7 -1.1 0.0 0.5 0.0 -0.1 0.5 0.2 -0.6 -1.2 -0.4 -0.1 0.9 0.9 1.0 1.2 1.3 1.2 0.9 1.5 2.2
6.5 6.5 6.4 6.5 6.5 6.5 6.5 6.5 6.5 6.5 6.5 6.5 6.5 6.5 6.5 6.5 5.6 4.0 2.9 1.7 0.8 0.5 0.8 0.7 -1.4 -2.2 -0.6 0.3 -0.2 -0.8 -0.9 -0.3 -0.9 0.0 0.3 -1.0 -0.2 -0.7 0.2 0.5 0.7 0.6 1.4 2.2
6.5 6.3 6.5 6.5 6.5 6.5 6.5 6.5 6.5 6.5 6.5 6.5 6.5 6.5 6.5 6.5 6.5 6.5 3.8 2.5 1.6 0.9 -0.1 -0.8 -1.2 -2.2 -3.2 -1.1 -0.1 -0.4 -0.6 -0.4 -0.3 -0.2 0.4 0.7 0.8 0.8 0.2 0.2 0.5 1.0 0.7 1.6
6.5 6.5 6.5 6.5 6.5 6.5 6.5 6.5 6.5 6.5 6.5 6.5 6.5 6.5 6.5 6.5 6.5 6.5 6.0 2.9 1.2 0.1 -1.6 -1.7 -2.0 -1.3 -2.3 -2.0 -1.9 -1.3 -1.5 -1.6 -1.5 -0.2 0.8 1.3 1.4 1.3 -0.8 -0.7 -0.5 -0.2 0.1 0.8
6.5 5.7 6.4 6.5 6.5 6.5 6.5 6.5 6.5 6.5 6.5 6.5 6.5 6.5 6.5 6.5 6.5 6.5 5.8 2.4 1.1 -0.7 -2.3 -2.5 -2.4 -2.6 -3.3 -3.7 -3.1 -3.0 -2.8 -2.4 -1.8 0.4 0.4 -0.1 0.7 0.5 -0.8 -0.7 0.1 0.4 0.1 0.5
6.5 6.5 6.5 6.3 6.5 6.5 6.5 6.5 6.5 6.5 6.5 6.5 6.5 6.5 6.5 6.5 6.5 6.5 6.5 2.8 1.8 1.0 -0.7 -2.0 -2.3 -2.6 -2.8 -3.3 -3.6 -3.2 -2.2 -2.0 -2.6 -1.5 -0.9 -0.7 0.3 0.8 0.2 0.3 0.7 0.8 0.5 0.4
6.5 6.5 6.5 6.5 6.5 6.5 6.5 6.5 6.5 6.5 6.5 6.5 6.5 6.5 6.5 6.5 5.4 4.5 4.2 2.9 2.4 1.8 0.3 0.5 0.7 -1.5 -2.3 -2.9 -3.6 -3.4 -3.1 -2.4 -2.3 -1.6 -1.1 -0.3 -0.0 0.2 0.4 1.0 1.0 0.9 0.9 0.7
6.5 6.5 6.5 6.5 6.5 6.5 6.5 6.5 6.5 6.5 6.5 6.5 6.5 6.5 6.5 6.5 6.5 5.8 4.5 2.4 1.7 1.5 1.0 0.8 0.4 -0.4 -1.6 -2.4 -3.3 -3.6 -3.4 -3.2 -3.2 -2.4 -1.5 -1.2 -1.0 -0.6 -0.8 -0.3 -0.5 -0.0 0.0 0.8
6.5 6.5 6.5 6.5 6.4 6.3 6.5 6.5 6.5 6.5 6.5 6.5 6.5 6.5 6.5 6.5 6.5 6.5 6.5 5.0 2.4 1.3 1.4 1.0 0.1 -0.0 -0.3 -1.3 -2.1 -2.7 -3.2 -2.4 -2.1 -2.0 -1.7 -1.4 -1.3 -1.4 -0.8 -0.7 -0.9 -0.5 0.1 0.3
6.5 6.5 6.5 6.5 6.5 6.5 6.5 6.5 6.5 6.5 6.5 6.5 6.5 6.5 6.5 6.5 6.5 6.5 6.5 4.2 3.4 2.5 1.8 1.9 1.7 1.0 0.2 -1.2 -1.6 -1.5 -2.0 -2.0 -2.2 -2.0 -2.0 -2.0 -1.9 -0.9 -0.4 -0.4 -0.2 0.1 0.6 0.3
6.5 6.5 6.5 6.5 6.5 6.5 6.5 6.5 6.5 6.5 6.5 6.5 6.5 6.5 6.5 6.5 6.5 6.2 5.4 3.9 3.1 2.5 1.2 0.7 0.5 0.0 -0.3 -0.2 -1.1 -0.9 -0.7 -1.0 -1.0 -1.1 -1.9 -2.1 -1.8 -1.1 -0.4 -0.6 -0.4 0.1 0.4 0.9
6.5 6.5 6.5 6.5 6.5 6.5 6.5 6.5 6.5 6.5 6.5 6.5 6.5 6.5 6.5 6.5 6.5 5.5 5.4 3.1 1.6 1.7 2.1 2.2 1.7 1.4 0.8 0.6 -0.1 -0.4 -0.5 -0.6 0.3 -0.9 -1.7 -1.5 -1.7 -0.2 -0.4 -0.4 -0.0 0.5 0.0 0.2
5.3 6.5 6.5 6.5 6.5 6.5 6.5 6.5 6.5 6.5 6.5 6.5 6.5 6.5 6.5 6.5 6.5 6.0 3.1 2.4 2.2 2.0 2.2 2.2 1.9 1.7 0.6 0.9 0.4 0.7 -0.8 -1.4 -0.7 -1.3 -1.1 -1.1 -1.3 -0.8 -0.6 -0.5 -0.4 -0.1 -0.5 -0.3
6.5 6.5 6.5 6.5 6.5 6.5 6.5 6.5 6.5 6.5 6.5 6.5 6.5 6.5 6.5 6.5 6.5 5.8 4.9 3.6 3.0 2.6 2.3 2.3 2.6 2.1 1.6 0.7 0.3 -0.4 -1.0 -1.0 -0.3 -0.3 -0.1 -0.2 0.4 0.4 0.6 0.4 -0.0 -0.6 -1.4 -0.8
6.5 6.5 6.5 6.5 6.5 6.5 6.5 6.5 6.5 6.5 6.5 6.5 6.5 6.5 6.5 5.7 4.8 5.8 4.8 4.3 3.9 3.6 3.6 3.3 2.5 2.5 2.3 1.5 0.9 0.5 -0.5 -1.3 -1.1 -0.3 -0.2 0.5 0.6 0.7 1.6 2.5 1.3 -0.7 -0.5 -0.8
6.5 6.5 6.5 6.5 6.5 6.5 6.5 6.5 6.5 6.5 6.5 6.5 6.5 6.5 6.5 6.5 6.5 6.0 4.8 3.7 4.3 4.3 3.9 3.3 2.9 2.7 2.1 1.5 1.3 1.1 0.4 -0.6 -0.9 -0.9 -0.6 -0.4 -0.1 0.3 1.2 1.4 0.2 -0.4 -0.6 -1.2
6.5 6.5 6.5 6.5 6.5 6.5 6.5 6.5 6.5 6.5 6.5 6.5 6.5 6.5 6.5 6.3 4.5 3.6 3.6 4.2 4.1 3.6 3.4 2.6 2.1 2.0 1.6 0.7 0.5 0.4 0.5 0.6 0.4 0.1 -0.1 -0.4 -0.5 -0.5 -0.4 -0.6 -0.3 -0.5 -1.1 -1.3
6.5 6.5 6.5 6.5 6.5 6.5 6.5 6.5 6.5 6.5 6.5 6.5 6.5 6.5 6.3 5.7 5.2 6.0 4.4 3.8 4.2 4.0 3.3 2.7 2.6 2.5 1.6 1.9 1.7 2.2 1.3 0.9 1.0 0.4 0.6 0.1 -0.2 0.1 -0.0 -0.3 -0.5 -0.9 -1.3 -1.4
6.5 6.5 6.5 6.5 6.5 6.5 6.5 6.5 5.3 6.5 6.5 6.5 6.1 6.5 6.5 5.5 6.5 6.5 5.3 5.0 4.8 4.4 3.9 3.1 2.9 3.7 3.1 2.5 2.3 2.3 2.0 2.7 2.3 2.1 2.0 1.5 1.1 1.4 1.5 1.0 0.4 -0.3 -0.3 -0.6
6.5 6.5 6.5 6.5 6.5 6.5 6.5 6.5 5.2 6.5 6.5 6.2 5.2 5.4 5.3 6.5 5.9 4.9 5.3 5.3 5.1 4.6 4.0 3.7 3.2 3.4 3.7 3.4 3.2 3.2 2.7 2.7 2.4 2.6 2.7 2.4 1.8 1.6 1.5 1.3 1.3 1.4 1.2 0.3
6.5 6.5 6.5 6.5 6.5 6.5 5.9 6.4 6.5 6.3 5.6 4.8 4.8 5.0 4.9 4.9 5.0 5.2 5.2 5.1 5.0 4.5 4.2 3.3 4.1 3.2 3.4 3.5 3.0 2.7 2.4 2.6 2.7 2.4 2.4 2.3 1.7 1.5 1.7 1.5 1.5 1.8 1.5 1.2
6.5 6.5 6.5 6.5 6.5 6.4 4.7 5.7 4.2 3.8 4.6 5.1 4.7 5.1 5.1 5.3 5.6 5.5 5.5 5.2 5.3 5.2 4.6 4.6 4.4 3.5 3.0 2.1 1.5 1.7 2.0 2.5 2.4 2.4 1.5 1.1 1.0 0.7 0.9 1.6 1.4 0.9 2.1 2.0
6.5 6.5 6.5 6.5 6.5 6.5 5.9 5.0 4.1 3.9 4.3 4.9 5.1 5.2 5.3 5.4 5.8 5.6 5.5 5.3 5.0 4.7 4.1 3.5 2.7 2.0 1.0 0.9 1.0 0.7 1.1 1.9 2.6 2.6 2.5 2.6 2.2 2.4 2.0 1.6 1.6 2.8 2.9 3.5
6.5 6.5 6.5 6.5 6.5 6.4 5.9 5.2 4.7 4.3 4.6 5.1 5.6 5.8 6.2 6.1 6.2 6.4 6.0 5.8 4.4 3.2 2.2 1.7 1.3 1.4 1.6 2.0 2.1 2.1 1.7 2.0 3.0 3.1 3.3 4.0 4.3 4.0 3.6 2.4 2.2 3.0 3.1 3.8
6.4 6.5 6.5 6.5 6.4 5.7 5.7 4.5 4.5 4.5 4.9 4.8 4.8 5.8 6.0 6.1 6.3 6.3 3.9 2.9 2.0 1.6 1.6 1.5 1.9 2.9 3.6 4.2 4.3 4.2 3.7 3.5 2.9 2.8 3.7 3.4 3.4 3.2 3.1 2.8 2.8 2.4 2.1 2.3
Wind_Speed
2 3 8 10 7 5 3 3 5 5 11 4 7 9 14 14 6 10 9 8 10 12 19 14 14 16 16 14 16 17 15 15 11 10 10 10 12 9 8 8 15 15 17 17
1 10 9 6 6 6 6 5 7 7 5 5 10 14 13 8 8 6 7 9 8 5 8 12 14 13 16 20 19 16 19 16 16 12 12 8 9 9 9 8 12 17 17 16
9 7 5 6 5 6 5 6 4 7 3 3 7 9 6 4 5 7 7 7 8 10 13 12 8 13 16 17 19 20 21 21 18 15 8 3 2 1 5 9 10 13 17 16
7 7 8 6 7 8 10 8 12 8 2 3 3 5 6 4 8 4 9 7 9 9 9 12 9 9 11 19 19 19 16 16 14 14 12 16 13 12 10 9 9 10 13 13
9 8 6 7 8 10 7 5 7 4 3 2 3 1 7 4 6 7 10 9 8 8 8 9 8 8 6 4 7 7 8 8 10 13 13 11 13 9 3 4 7 8 8 11
6 4 7 9 4 7 0 1 5 4 2 2 7 6 5 4 4 6 7 8 8 9 9 9 6 4 2 3 5 6 8 6 8 12 13 14 15 8 5 4 6 6 7 8
13 9 0 3 5 6 4 5 3 2 1 6 3 4 8 6 6 5 6 9 8 7 7 7 8 6 0 4 6 6 11 13 13 16 16 16 15 11 11 10 9 8 7 7
10 12 15 9 20 8 8 10 5 7 4 4 4 6 6 7 6 6 6 6 5 7 6 7 7 4 2 4 6 7 8 8 11 12 13 13 14 11 11 11 9 9 9 9
7 8 4 6 5 15 6 5 10 5 2 2 4 6 9 5 6 7 6 8 8 8 8 8 9 6 6 6 8 8 8 7 10 13 12 13 13 14 13 13 9 9 9 7
8 3 6 2 5 9 10 6 4 1 6 6 5 5 6 4 6 5 4 5 8 8 10 10 8 6 7 8 7 7 7 10 10 11 11 11 13 13 12 9 13 11 10 9
6 4 3 5 8 11 5 5 3 5 5 6 3 6 8 13 9 6 5 4 3 5 7 7 8 9 9 7 8 10 9 11 10 11 12 11 12 15 13 13 12 11 11 11
8 5 5 8 3 4 5 9 10 5 7 3 3 6 3 7 4 3 5 5 4 4 7 8 8 9 9 9 8 11 13 11 14 11 8 12 9 10 13 14 13 10 12 11
10 5 2 6 5 1 5 6 11 3 4 9 6 6 1 3 4 4 4 7 8 8 8 8 9 9 10 10 10 8 10 13 15 7 7 6 7 10 14 15 14 11 10 10
12 5 9 15 8 4 9 8 10 9 3 6 7 3 4 5 5 7 9 8 8 7 7 7 9 11 11 11 10 11 8 9 9 7 7 9 10 12 13 12 11 12 11 10
7 7 6 7 6 4 4 10 11 12 19 8 10 8 7 9 6 5 4 6 7 8 9 10 11 12 13 13 13 11 8 6 4 6 6 12 10 8 8 10 11 10 8 9
3 5 7 5 7 7 4 5 8 5 4 4 4 6 8 4 4 3 5 5 6 7 8 9 10 12 12 12 12 12 12 11 6 4 6 5 5 6 9 10 6 6 6 5
7 5 3 5 1 5 2 11 8 6 4 8 7 8 6 4 1 2 3 6 6 6 6 8 9 9 9 10 10 10 10 8 8 7 6 6 5 5 6 5 5 7 9 7
7 6 3 8 2 3 8 2 9 13 5 8 4 3 3 3 5 6 4 3 2 4 5 6 6 7 7 7 7 7 8 10 10 10 8 7 6 6 5 4 5 4 4 7
5 6 3 6 7 5 5 3 7 7 8 7 8 4 4 5 6 3 3 2 1 4 5 5 6 6 6 9 10 8 10 8 10 12 12 11 10 9 7 6 5 3 3 3
4 3 5 3 6 17 2 8 7 5 6 9 9 8 7 7 4 3 4 1 2 4 4 6 7 6 9 11 11 10 10 10 11 10 9 7 7 7 9 7 6 4 4 2
3 1 5 2 4 6 6 4 5 6 6 3 5 6 7 5 4 5 3 2 2 2 4 7 7 7 8 9 9 10 10 13 10 10 10 9 8 7 6 6 4 3 1 4
8 6 4 3 1 10 7 1 9 4 3 4 5 4 7 6 5 3 4 4 3 3 4 6 6 6 7 9 8 8 9 9 8 8 8 10 10 8 7 7 5 4 3 4
18 9 5 8 6 1 4 2 2 3 5 4 7 6 6 5 4 4 4 4 6 6 4 4 4 6 8 10 10 9 10 9 9 8 9 9 8 7 8 7 6 4 4 4
3 4 5 4 2 4 5 6 6 7 10 8 7 6 4 3 2 1 2 2 1 3 6 7 8 9 9 9 9 8 10 9 6 7 8 8 8 9 10 8 7 6 6 6
4 7 7 1 6 10 3 4 6 7 7 7 4 3 3 3 1 2 2 4 5 6 8 9 9 9 10 11 12 13 12 10 9 9 9 8 7 8 7 7 7 6 5 5
4 6 6 8 12 5 6 9 7 7 5 7 5 2 2 2 4 4 5 6 6 7 9 9 10 8 7 8 8 9 9 9 9 8 6 6 5 5 5 5 5 6 6 6
Wind_Direction
175 164 220 205 194 226 277 206 255 255 273 288 258 276 277 280 274 280 278 218 220 220 241 246 236 218 207 198 196 197 190 196 180 193 197 210 218 215 219 219 221 215 214 210
53 238 233 179 201 219 253 281 273 283 262 177 302 288 273 284 266 247 292 304 279 254 243 241 231 222 202 204 204 197 202 193 195 199 204 209 208 220 220 220 223 218 214 210
191 213 160 167 198 203 234 215 234 236 337 269 301 303 325 313 304 319 308 265 274 260 274 273 220 211 208 205 203 201 202 200 201 201 189 131 96 138 201 220 221 223 216 214
224 218 219 228 232 163 262 211 238 261 62 202 38 285 311 337 316 289 290 298 289 302 292 288 266 232 206 213 206 207 204 203 198 190 191 202 209 214 220 219 222 222 214 217
230 172 176 199 226 171 231 214 214 221 203 125 184 72 268 322 324 332 318 329 329 314 303 315 315 256 242 217 209 200 185 182 178 188 198 203 218 224 187 170 176 196 204 216
233 206 170 194 181 171 59 97 45 46 79 300 217 154 277 222 228 298 306 328 326 336 348 347 351 18 102 122 126 133 137 147 156 184 197 201 215 206 181 184 204 205 216 223
234 227 157 172 245 255 139 68 315 342 324 224 180 137 245 238 250 233 284 310 323 337 353 359 5 9 81 174 163 159 170 186 183 189 199 203 210 205 206 207 214 213 213 215
203 261 189 203 210 186 188 159 174 210 198 237 120 227 249 206 217 267 267 279 309 332 335 337 340 334 310 208 194 188 192 198 199 201 206 207 207 210 217 218 220 227 224 221
171 249 229 185 178 173 185 179 198 108 17 33 221 279 301 214 248 260 338 351 351 354 347 327 321 305 285 265 233 225 209 207 198 204 205 209 209 214 218 217 211 221 223 223
204 265 204 162 118 199 183 163 90 338 186 223 259 256 216 245 204 215 284 344 352 353 354 341 330 291 280 278 279 264 247 234 220 211 211 215 215 216 220 212 218 219 227 220
146 144 251 128 194 177 151 214 191 140 151 178 221 253 215 223 238 253 288 319 328 309 287 292 296 295 287 262 238 240 238 235 233 216 215 213 216 220 221 224 227 224 233 226
195 152 198 206 162 162 166 195 176 154 226 218 183 255 255 226 248 210 283 307 305 256 293 301 298 290 288 277 259 241 239 229 234 232 213 219 215 209 228 225 225 220 228 230
172 198 138 314 347 163 196 198 203 124 81 209 161 257 277 218 236 240 281 329 328 328 320 307 309 305 293 286 283 256 241 234 240 216 214 226 219 219 228 229 225 222 215 214
139 159 194 221 212 190 180 181 192 184 161 202 220 216 287 246 247 319 330 334 319 318 320 313 329 322 307 300 292 292 268 236 237 214 206 220 225 222 222 222 222 220 210 204
156 191 201 235 222 207 220 207 172 193 223 189 238 216 212 222 242 270 302 316 338 343 349 350 347 337 335 339 327 310 294 272 217 224 216 233 254 248 234 231 226 217 195 201
136 206 176 253 221 245 239 196 218 120 147 248 203 261 218 239 256 290 308 348 355 352 352 350 348 347 350 352 346 342 339 334 339 272 249 264 250 229 231 236 219 195 221 189
146 161 133 252 155 125 318 231 169 196 185 161 200 227 167 173 219 328 9 20 357 2 351 342 342 334 335 348 341 350 352 353 17 14 354 339 312 273 250 226 195 203 205 189
157 195 138 241 73 229 247 222 219 211 194 213 135 156 136 166 83 86 63 82 24 338 342 341 332 326 333 332 342 323 1 11 15 16 7 358 347 320 305 272 254 244 199 209
178 155 137 180 201 301 251 202 148 164 240 201 199 164 140 131 122 91 142 147 89 5 351 336 325 319 334 345 339 350 10 6 13 8 359 352 351 338 329 311 290 259 221 208
95 83 132 116 186 236 119 194 145 101 265 197 187 159 155 146 151 206 154 126 15 7 340 345 338 334 354 350 346 2 360 5 8 353 342 338 344 345 340 336 331 328 330 319
148 79 169 141 232 276 251 211 128 152 249 134 139 146 142 150 161 138 120 87 68 31 359 351 347 356 345 340 345 357 6 0 341 342 342 352 355 348 343 336 339 324 50 117
180 158 176 102 227 258 197 10 167 181 57 138 109 91 92 84 63 56 36 22 18 12 7 56 325 11 346 350 358 2 5 331 338 346 356 350 350 353 350 353 351 19 75 102
221 208 180 180 217 262 26 102 62 157 133 112 108 97 97 82 45 359 349 5 343 352 9 26 1 3 23 23 19 12 344 337 345 8 8 3 358 9 12 13 8 11 35 55
163 151 169 118 174 108 89 73 69 94 113 115 106 109 109 120 73 17 358 329 326 337 31 32 40 38 26 21 20 14 353 346 11 28 29 26 24 25 32 38 32 31 40 44
186 145 159 78 101 94 77 136 150 105 94 99 108 121 149 155 129 247 277 335 31 33 42 47 50 44 29 20 21 15 9 4 27 30 23 21 31 34 32 45 41 36 20 28
188 169 180 226 170 165 156 161 152 131 158 168 142 183 235 181 241 254 62 57 58 51 47 50 50 45 35 27 19 8 2 19 33 39 34 34 30 23 27 19 2 16 16 11